Weather History for KCOD - February, 2015

Change the Weather History Date:

Tuesday, February 10, 2015

  Actual Average Record
Temperature  
Mean Temperature 40 °F -  
Max Temperature 48 °F 37 °F 65 °F (1951)
Min Temperature 33 °F 15 °F -28 °F (1939)
Degree Days  
Heating Degree Days 24    
Moisture  
Dew Point 29 °F    
Average Humidity 63    
Maximum Humidity 100    
Minimum Humidity 34    
Precipitation  
Precipitation 0.01 in - - ()
Sea Level Pressure  
Sea Level Pressure 30.09 in    
Wind  
Wind Speed 11 mph (NW)    
Max Wind Speed 22 mph    
Max Gust Speed 28 mph    
Visibility 10 miles    
Events      
Averages and records for this station are not official NWS values.
T = Trace of Precipitation, MM = Missing Value Source: NWS Daily Summary

Daily Weather History Graph

Daily Weather History Graph

Search for Another Location

Airport or City:

Trip Planner

Search our weather history database for the weather conditions in past years. The results will help you decide how hot, cold, wet, or windy it might be!

Date:

Astronomy

Feb. 10, 2015 Rise Set
Actual Time 7:23 AM MST 5:37 PM MST
Civil Twilight 6:53 AM MST 6:08 PM MST
Nautical Twilight 6:18 AM MST 6:42 PM MST
Astronomical Twilight 5:45 AM MST 7:16 PM MST
Moon No Moon Rise 10:22 AM MST (2/10)
Length of Visible Light 11h 14m
Length of Day
10h 14m
Waning Gibbous, 63% of the Moon is Illuminated
Feb 10
Waning Gibbous
Feb 11
Last Quarter
Feb 18
New
Feb 25
First Quarter
Mar 5
Full

Hourly Weather History & Observations

Time (MST) Temp. Windchill Dew Point Humidity Pressure Visibility Wind Dir Wind Speed Gust Speed Precip Events Conditions
12:15 AM 46.4 °F 40.7 °F 24.8 °F 43% 29.91 in 10.0 mi West 12.7 mph 21.9 mph N/A   Partly Cloudy
12:35 AM 46.4 °F 40.7 °F 24.8 °F 43% 29.90 in 10.0 mi WSW 12.7 mph 27.6 mph N/A   Partly Cloudy
12:55 AM 46.4 °F 40.1 °F 24.8 °F 43% 29.91 in 10.0 mi WSW 15.0 mph 25.3 mph N/A   Mostly Cloudy
1:15 AM 46.4 °F 39.2 °F 24.8 °F 43% 29.92 in 10.0 mi West 18.4 mph 26.5 mph N/A   Scattered Clouds
1:35 AM 46.4 °F 38.7 °F 26.6 °F 46% 29.92 in 10.0 mi WSW 20.7 mph 27.6 mph N/A   Mostly Cloudy
1:55 AM 44.6 °F 37.8 °F 26.6 °F 49% 29.93 in 10.0 mi WSW 15.0 mph 21.9 mph N/A   Overcast
2:15 AM 44.6 °F 39.2 °F 26.6 °F 49% 29.94 in 10.0 mi WSW 10.4 mph 24.2 mph N/A   Overcast
2:35 AM 44.6 °F 37.8 °F 24.8 °F 46% 29.94 in 10.0 mi West 15.0 mph 24.2 mph N/A   Scattered Clouds
2:55 AM 44.6 °F 39.7 °F 24.8 °F 46% 29.95 in 10.0 mi West 9.2 mph 16.1 mph N/A   Mostly Cloudy
3:15 AM 42.8 °F 38.6 °F 26.6 °F 53% 29.96 in 10.0 mi NW 6.9 mph - N/A   Overcast
3:35 AM 42.8 °F 37.5 °F 28.4 °F 57% 29.95 in 10.0 mi WSW 9.2 mph - N/A   Overcast
3:55 AM 42.8 °F 38.6 °F 26.6 °F 53% 29.96 in 10.0 mi West 6.9 mph - N/A   Mostly Cloudy
4:15 AM 42.8 °F 37.0 °F 26.6 °F 53% 29.95 in 10.0 mi WSW 10.4 mph 21.9 mph N/A   Scattered Clouds
4:35 AM 44.6 °F 36.1 °F 24.8 °F 46% 29.95 in 10.0 mi WSW 21.9 mph 26.5 mph N/A   Mostly Cloudy
4:55 AM 44.6 °F 38.8 °F 24.8 °F 46% 29.96 in 10.0 mi West 11.5 mph 18.4 mph N/A   Scattered Clouds
5:15 AM 44.6 °F 38.1 °F 24.8 °F 46% 29.96 in 10.0 mi West 13.8 mph 23.0 mph N/A   Mostly Cloudy
5:35 AM 44.6 °F 39.2 °F 24.8 °F 46% 29.97 in 10.0 mi WSW 10.4 mph - N/A   Mostly Cloudy
5:55 AM 44.6 °F 39.2 °F 23.0 °F 43% 29.98 in 10.0 mi West 10.4 mph 17.3 mph N/A   Overcast
6:15 AM 44.6 °F 39.2 °F 23.0 °F 43% 29.97 in 10.0 mi West 10.4 mph 16.1 mph N/A   Mostly Cloudy
6:35 AM 44.6 °F 40.7 °F 23.0 °F 43% 29.98 in 10.0 mi West 6.9 mph - N/A   Partly Cloudy
6:55 AM 44.6 °F 38.8 °F 24.8 °F 46% 29.99 in 10.0 mi West 11.5 mph 18.4 mph N/A   Partly Cloudy
7:15 AM 44.6 °F 38.8 °F 24.8 °F 46% 29.99 in 10.0 mi West 11.5 mph 18.4 mph N/A   Clear
7:35 AM 44.6 °F 37.8 °F 24.8 °F 46% 29.99 in 10.0 mi West 15.0 mph 21.9 mph N/A   Partly Cloudy
7:55 AM 44.6 °F 38.8 °F 24.8 °F 46% 30.00 in 10.0 mi WNW 11.5 mph 21.9 mph N/A   Clear
8:15 AM 44.6 °F 42.2 °F 24.8 °F 46% 30.01 in 10.0 mi West 4.6 mph 21.9 mph N/A   Mostly Cloudy
8:35 AM 44.6 °F 40.7 °F 24.8 °F 46% 30.01 in 10.0 mi WNW 6.9 mph - N/A   Overcast
8:55 AM 44.6 °F 39.7 °F 24.8 °F 46% 30.02 in 10.0 mi WNW 9.2 mph - N/A   Overcast
9:15 AM 44.6 °F 39.2 °F 24.8 °F 46% 30.02 in 10.0 mi West 10.4 mph 16.1 mph N/A   Overcast
9:35 AM 44.6 °F 43.1 °F 24.8 °F 46% 30.03 in 10.0 mi West 3.5 mph - N/A   Overcast
9:55 AM 46.4 °F 41.5 °F 24.8 °F 43% 30.03 in 10.0 mi WSW 10.4 mph 16.1 mph N/A   Overcast
10:15 AM 48.2 °F - 24.8 °F 40% 30.04 in 10.0 mi West 10.4 mph 17.3 mph N/A   Overcast
10:35 AM 48.2 °F - 21.2 °F 34% 30.04 in 10.0 mi West 8.1 mph 16.1 mph N/A   Overcast
10:55 AM 48.2 °F - 24.8 °F 40% 30.05 in 10.0 mi West 9.2 mph 17.3 mph N/A   Overcast
11:15 AM 48.2 °F - 24.8 °F 40% 30.06 in 10.0 mi WNW 11.5 mph 16.1 mph N/A   Overcast
11:35 AM 48.2 °F - 24.8 °F 40% 30.07 in 10.0 mi WNW 4.6 mph - N/A   Overcast
11:55 AM 46.4 °F 41.9 °F 26.6 °F 46% 30.07 in 10.0 mi NE 9.2 mph - N/A   Overcast
12:15 PM 46.4 °F 42.4 °F 26.6 °F 46% 30.07 in 10.0 mi NNW 8.1 mph - N/A   Overcast
12:35 PM 46.4 °F 41.9 °F 28.4 °F 50% 30.08 in 10.0 mi NE 9.2 mph - N/A   Overcast
12:55 PM 48.2 °F - 30.2 °F 50% 30.08 in 10.0 mi NNE 10.4 mph - N/A   Overcast
1:15 PM 48.2 °F - 28.4 °F 46% 30.08 in 10.0 mi NNE 9.2 mph - N/A   Overcast
1:35 PM 48.2 °F - 28.4 °F 46% 30.08 in 10.0 mi North 3.5 mph - N/A   Mostly Cloudy
1:55 PM 48.2 °F - 28.4 °F 46% 30.08 in 10.0 mi Calm Calm - N/A   Mostly Cloudy
2:15 PM 48.2 °F - 28.4 °F 46% 30.09 in 10.0 mi NE 10.4 mph - N/A   Overcast
2:35 PM 46.4 °F 39.8 °F 28.4 °F 50% 30.11 in 10.0 mi NNE 16.1 mph 20.7 mph N/A   Overcast
2:55 PM 42.8 °F 35.4 °F 35.6 °F 76% 30.12 in 10.0 mi NNE 15.0 mph 19.6 mph 0.01 in   Mostly Cloudy
3:15 PM 42.8 °F 34.8 °F 33.8 °F 70% 30.14 in 10.0 mi North 17.3 mph 24.2 mph N/A   Mostly Cloudy
3:35 PM 39.2 °F 30.2 °F 35.6 °F 87% 30.16 in 10.0 mi North 17.3 mph 25.3 mph N/A   Overcast
3:55 PM 39.2 °F 31.6 °F 35.6 °F 87% 30.16 in 10.0 mi North 12.7 mph 17.3 mph N/A   Overcast
4:15 PM 39.2 °F 31.6 °F 35.6 °F 87% 30.17 in 10.0 mi North 12.7 mph 17.3 mph N/A   Overcast
4:55 PM 39.2 °F 32.0 °F 35.6 °F 87% 30.19 in 10.0 mi North 11.5 mph - N/A   Overcast
5:15 PM 37.4 °F 29.8 °F 35.6 °F 93% 30.21 in 10.0 mi North 11.5 mph - N/A   Overcast
5:35 PM 37.4 °F 29.8 °F 35.6 °F 93% 30.21 in 10.0 mi North 11.5 mph - N/A   Overcast
5:55 PM 37.4 °F 30.8 °F 35.6 °F 93% 30.22 in 10.0 mi North 9.2 mph - N/A   Overcast
6:15 PM 37.4 °F 30.3 °F 33.8 °F 87% 30.23 in 10.0 mi North 10.4 mph - N/A   Overcast
6:35 PM 37.4 °F 30.8 °F 35.6 °F 93% 30.24 in 10.0 mi NNE 9.2 mph - N/A   Overcast
6:55 PM 35.6 °F 28.6 °F 35.6 °F 100% 30.25 in 10.0 mi NNE 9.2 mph - N/A   Overcast
7:15 PM 37.4 °F 31.4 °F 35.6 °F 93% 30.26 in 10.0 mi North 8.1 mph - N/A   Overcast
7:35 PM 35.6 °F 30.7 °F 35.6 °F 100% 30.27 in 10.0 mi North 5.8 mph - N/A   Overcast
7:55 PM 37.4 °F 32.8 °F 33.8 °F 87% 30.27 in 10.0 mi North 5.8 mph - N/A   Overcast
8:15 PM 37.4 °F 32.8 °F 35.6 °F 93% 30.27 in 10.0 mi North 5.8 mph - N/A   Overcast
8:35 PM 35.6 °F 31.7 °F 33.8 °F 93% 30.28 in 10.0 mi NE 4.6 mph - N/A   Overcast
8:55 PM 33.8 °F 29.6 °F 33.8 °F 100% 30.28 in 10.0 mi NE 4.6 mph - N/A   Mostly Cloudy
9:15 PM 33.8 °F - 33.8 °F 100% 30.29 in 10.0 mi Calm Calm - N/A   Mostly Cloudy
9:35 PM 33.8 °F - 33.8 °F 100% 30.29 in 10.0 mi Calm Calm - N/A   Overcast
9:55 PM 33.8 °F 27.7 °F 33.8 °F 100% 30.29 in 10.0 mi SSE 6.9 mph - N/A   Overcast
10:15 PM 35.6 °F 30.7 °F 33.8 °F 93% 30.29 in 10.0 mi South 5.8 mph - N/A   Overcast
10:35 PM 35.6 °F 30.7 °F 33.8 °F 93% 30.29 in 10.0 mi SE 5.8 mph - N/A   Overcast
10:55 PM 33.8 °F 28.6 °F 33.8 °F 100% 30.30 in 10.0 mi SE 5.8 mph - N/A   Overcast
11:15 PM 35.6 °F 31.7 °F 33.8 °F 93% 30.30 in 10.0 mi SSE 4.6 mph - N/A   Overcast
11:35 PM 35.6 °F 30.7 °F 33.8 °F 93% 30.30 in 10.0 mi South 5.8 mph - N/A   Overcast
11:55 PM 33.8 °F 28.6 °F 30.2 °F 87% 30.30 in 10.0 mi SSE 5.8 mph - N/A   Overcast